Year,Month,Day,Hour,Minute,Value (Times are PST for temperature in C)
2020,04,23,12,14,12.80
2020,04,23,12,15,12.80
2020,04,23,12,16,12.80
2020,04,23,12,17,12.80
2020,04,23,12,18,12.80
2020,04,23,12,19,12.80
2020,04,23,12,20,12.80
2020,04,23,12,21,12.80
2020,04,23,12,22,12.80
2020,04,23,12,23,12.80
2020,04,23,12,24,12.80
2020,04,23,12,25,12.80
2020,04,23,12,26,12.80
2020,04,23,12,27,12.80
2020,04,23,12,28,12.80
2020,04,23,12,29,12.80
2020,04,23,12,30,12.90
2020,04,23,12,31,12.90
2020,04,23,12,32,12.90
2020,04,23,12,33,12.90
2020,04,23,12,34,13.00
2020,04,23,12,35,13.00
2020,04,23,12,36,13.10
2020,04,23,12,37,13.10
2020,04,23,12,38,13.20
2020,04,23,12,39,13.20
2020,04,23,12,40,13.20
2020,04,23,12,41,13.20
2020,04,23,12,42,13.30
2020,04,23,12,43,13.30
2020,04,23,12,44,13.30
2020,04,23,12,45,13.30
2020,04,23,12,46,13.30
2020,04,23,12,47,13.30
2020,04,23,12,48,13.30
2020,04,23,12,49,13.30
2020,04,23,12,50,13.30
2020,04,23,12,51,13.30
2020,04,23,12,52,13.30
2020,04,23,12,53,13.30
2020,04,23,12,54,13.30
2020,04,23,12,55,13.30
2020,04,23,12,56,13.30
2020,04,23,12,57,13.30
2020,04,23,12,58,13.30
2020,04,23,12,59,13.40
2020,04,23,13,00,13.40
2020,04,23,13,01,13.40
2020,04,23,13,02,13.40
2020,04,23,13,03,13.30
2020,04,23,13,04,13.30
2020,04,23,13,05,13.30
2020,04,23,13,06,13.20
2020,04,23,13,07,13.20
2020,04,23,13,08,13.20
2020,04,23,13,09,13.20
2020,04,23,13,10,13.30
2020,04,23,13,11,13.30
2020,04,23,13,12,13.30
2020,04,23,13,13,13.30
2020,04,23,13,14,13.30
2020,04,23,13,15,13.30
2020,04,23,13,16,13.30
2020,04,23,13,17,13.30
2020,04,23,13,18,13.30
2020,04,23,13,19,13.40
2020,04,23,13,20,13.50
2020,04,23,13,21,13.50
2020,04,23,13,22,13.50
2020,04,23,13,23,13.50
2020,04,23,13,24,13.40
2020,04,23,13,25,13.40
2020,04,23,13,26,13.50
2020,04,23,13,27,13.60
2020,04,23,13,28,13.60
2020,04,23,13,29,13.60
2020,04,23,13,30,13.70
2020,04,23,13,31,13.70
2020,04,23,13,32,13.60
2020,04,23,13,33,13.50
2020,04,23,13,34,13.50
2020,04,23,13,35,13.50
2020,04,23,13,36,13.50
2020,04,23,13,37,13.50
2020,04,23,13,38,13.50
2020,04,23,13,39,13.50
2020,04,23,13,40,13.50
2020,04,23,13,41,13.40
2020,04,23,13,42,13.40
2020,04,23,13,43,13.50
2020,04,23,13,44,13.50
2020,04,23,13,45,13.60
2020,04,23,13,46,13.60
2020,04,23,13,47,13.70
2020,04,23,13,48,13.70
2020,04,23,13,49,13.70
2020,04,23,13,50,13.80
2020,04,23,13,51,13.80
2020,04,23,13,52,13.90
2020,04,23,13,53,13.90
2020,04,23,13,54,13.90
2020,04,23,13,55,13.90
2020,04,23,13,56,13.90
2020,04,23,13,57,13.90
2020,04,23,13,58,14.00
2020,04,23,13,59,14.00
2020,04,23,14,00,14.00
2020,04,23,14,01,14.00
2020,04,23,14,02,14.00
2020,04,23,14,03,14.00
2020,04,23,14,04,14.00
2020,04,23,14,05,13.90
2020,04,23,14,06,13.90
2020,04,23,14,07,14.00
2020,04,23,14,08,14.00
2020,04,23,14,09,13.90
2020,04,23,14,10,13.90
2020,04,23,14,11,13.90
2020,04,23,14,12,13.90
2020,04,23,14,13,13.90
2020,04,23,14,14,13.90
2020,04,23,14,15,13.90
2020,04,23,14,16,14.00
2020,04,23,14,17,14.00
2020,04,23,14,18,14.00
2020,04,23,14,19,14.00
2020,04,23,14,20,14.00
2020,04,23,14,21,13.90
2020,04,23,14,22,13.90
2020,04,23,14,23,13.90
2020,04,23,14,24,13.90
2020,04,23,14,25,14.00
2020,04,23,14,26,14.00
2020,04,23,14,27,13.90
2020,04,23,14,28,13.90
2020,04,23,14,29,13.90
2020,04,23,14,30,13.90
2020,04,23,14,31,13.90
2020,04,23,14,32,14.00
2020,04,23,14,33,14.00
2020,04,23,14,34,14.00
2020,04,23,14,35,14.00
2020,04,23,14,36,14.00
2020,04,23,14,37,14.00
2020,04,23,14,38,14.10
2020,04,23,14,39,14.10
2020,04,23,14,40,14.10
2020,04,23,14,41,14.10
2020,04,23,14,42,14.10
2020,04,23,14,43,14.20
2020,04,23,14,44,14.10
2020,04,23,14,45,14.10
2020,04,23,14,46,14.20
2020,04,23,14,47,14.20
2020,04,23,14,48,14.20
2020,04,23,14,49,14.20
2020,04,23,14,50,14.20
2020,04,23,14,51,14.20
2020,04,23,14,52,14.20
2020,04,23,14,53,14.20
2020,04,23,14,54,14.20
2020,04,23,14,55,14.20
2020,04,23,14,56,14.20
2020,04,23,14,57,14.30
2020,04,23,14,58,14.30
2020,04,23,14,59,14.30
2020,04,23,15,00,14.30
2020,04,23,15,01,14.30
2020,04,23,15,02,14.30
2020,04,23,15,03,14.40
2020,04,23,15,04,14.40
2020,04,23,15,05,14.30
2020,04,23,15,06,14.30
2020,04,23,15,07,14.30
2020,04,23,15,08,14.40
2020,04,23,15,09,14.40
2020,04,23,15,10,14.40
2020,04,23,15,11,14.50
2020,04,23,15,12,14.50
2020,04,23,15,13,14.50
2020,04,23,15,14,14.60
2020,04,23,15,15,14.60
2020,04,23,15,16,14.60
2020,04,23,15,17,14.60
2020,04,23,15,18,14.60
2020,04,23,15,19,14.60
2020,04,23,15,20,14.60
2020,04,23,15,21,14.60
2020,04,23,15,22,14.60
2020,04,23,15,23,14.60
2020,04,23,15,24,14.60
2020,04,23,15,25,14.50
2020,04,23,15,26,14.50
2020,04,23,15,27,14.50
2020,04,23,15,28,14.50
2020,04,23,15,29,14.50
2020,04,23,15,30,14.50
2020,04,23,15,31,14.60
2020,04,23,15,32,14.60
2020,04,23,15,33,14.60
2020,04,23,15,34,14.70
2020,04,23,15,35,14.70
2020,04,23,15,36,14.70
2020,04,23,15,37,14.80
2020,04,23,15,38,14.80
2020,04,23,15,39,14.80
2020,04,23,15,40,14.90
2020,04,23,15,41,14.90
2020,04,23,15,42,14.90
2020,04,23,15,43,14.90
2020,04,23,15,44,15.00
2020,04,23,15,45,15.00
2020,04,23,15,46,15.00
2020,04,23,15,47,15.00
2020,04,23,15,48,14.90
2020,04,23,15,49,14.90
2020,04,23,15,50,14.90
2020,04,23,15,51,14.90
2020,04,23,15,52,14.90
2020,04,23,15,53,14.80
2020,04,23,15,54,14.80
2020,04,23,15,55,14.80
2020,04,23,15,56,14.80
2020,04,23,15,57,14.80
2020,04,23,15,58,14.80
2020,04,23,15,59,14.80
2020,04,23,16,00,14.70
2020,04,23,16,01,14.70
2020,04,23,16,02,14.70
2020,04,23,16,03,14.70
2020,04,23,16,04,14.70
2020,04,23,16,05,14.70
2020,04,23,16,06,14.70
2020,04,23,16,07,14.70
2020,04,23,16,08,14.90
2020,04,23,16,09,14.90
2020,04,23,16,10,14.80
2020,04,23,16,11,14.70
2020,04,23,16,12,14.70
2020,04,23,16,13,14.70
2020,04,23,16,14,14.70
2020,04,23,16,15,14.80
2020,04,23,16,16,14.80
2020,04,23,16,17,14.80
2020,04,23,16,18,14.70
2020,04,23,16,19,14.70
2020,04,23,16,20,14.80
2020,04,23,16,21,14.80
2020,04,23,16,22,14.80
2020,04,23,16,23,14.80
2020,04,23,16,24,14.80
2020,04,23,16,25,14.80
2020,04,23,16,26,14.80
2020,04,23,16,27,14.80
2020,04,23,16,28,14.80
2020,04,23,16,29,14.80
2020,04,23,16,30,14.80
2020,04,23,16,31,14.80
2020,04,23,16,32,14.80
2020,04,23,16,33,14.80
2020,04,23,16,34,14.80
2020,04,23,16,35,14.90
2020,04,23,16,36,14.80
2020,04,23,16,37,14.80
2020,04,23,16,38,14.80
2020,04,23,16,39,14.80
2020,04,23,16,40,14.80
2020,04,23,16,41,14.80
2020,04,23,16,42,14.80
2020,04,23,16,43,14.80
2020,04,23,16,44,14.80
2020,04,23,16,45,14.80
2020,04,23,16,46,14.80
2020,04,23,16,47,14.80
2020,04,23,16,48,14.80
2020,04,23,16,49,14.80
2020,04,23,16,50,14.80
2020,04,23,16,51,14.80
2020,04,23,16,52,14.80
2020,04,23,16,53,14.80
2020,04,23,16,54,14.90
2020,04,23,16,55,14.90
2020,04,23,16,56,14.90
2020,04,23,16,57,14.90
2020,04,23,16,58,15.00
2020,04,23,16,59,15.00
2020,04,23,17,00,15.00
2020,04,23,17,01,15.00
2020,04,23,17,02,15.00
2020,04,23,17,03,15.00
2020,04,23,17,04,15.00
2020,04,23,17,05,15.00
2020,04,23,17,06,15.00
2020,04,23,17,07,15.00
2020,04,23,17,08,15.00
2020,04,23,17,09,15.00
2020,04,23,17,10,14.90
2020,04,23,17,11,14.90
2020,04,23,17,12,14.90
2020,04,23,17,13,14.90
2020,04,23,17,14,14.90
2020,04,23,17,15,14.90
2020,04,23,17,16,14.90
2020,04,23,17,17,14.90
2020,04,23,17,18,14.90
2020,04,23,17,19,14.90
2020,04,23,17,20,14.90
2020,04,23,17,21,14.90
2020,04,23,17,22,14.90
2020,04,23,17,23,14.90
2020,04,23,17,24,14.90
2020,04,23,17,25,14.90
2020,04,23,17,26,14.90
2020,04,23,17,27,14.90
2020,04,23,17,28,14.90
2020,04,23,17,29,14.80
2020,04,23,17,30,14.80
2020,04,23,17,31,14.80
2020,04,23,17,32,14.70
2020,04,23,17,33,14.70
2020,04,23,17,34,14.70
2020,04,23,17,35,14.70
2020,04,23,17,36,14.70
2020,04,23,17,37,14.70
2020,04,23,17,38,14.70
2020,04,23,17,39,14.70
2020,04,23,17,40,14.70
2020,04,23,17,41,14.70
2020,04,23,17,42,14.70
2020,04,23,17,43,14.70
2020,04,23,17,44,14.70
2020,04,23,17,45,14.70
2020,04,23,17,46,14.70
2020,04,23,17,47,14.70
2020,04,23,17,48,14.60
2020,04,23,17,49,14.60
2020,04,23,17,50,14.60
2020,04,23,17,51,14.60
2020,04,23,17,52,14.60
2020,04,23,17,53,14.60
2020,04,23,17,54,14.60
2020,04,23,17,55,14.70
2020,04,23,17,56,14.70
2020,04,23,17,57,14.60
2020,04,23,17,58,14.60
2020,04,23,17,59,14.60
2020,04,23,18,00,14.60
2020,04,23,18,01,14.60
2020,04,23,18,02,14.60
2020,04,23,18,03,14.70
2020,04,23,18,04,14.70
2020,04,23,18,05,14.70
2020,04,23,18,06,14.70
2020,04,23,18,07,14.80
2020,04,23,18,08,14.80
2020,04,23,18,09,14.80
2020,04,23,18,10,14.80
2020,04,23,18,11,14.80
2020,04,23,18,12,14.70
2020,04,23,18,13,14.70
2020,04,23,18,14,14.70
2020,04,23,18,15,14.70
2020,04,23,18,16,14.80
2020,04,23,18,17,14.80
2020,04,23,18,18,14.70
2020,04,23,18,19,14.70
2020,04,23,18,20,14.70
2020,04,23,18,21,14.70
2020,04,23,18,22,14.60
2020,04,23,18,23,14.60
2020,04,23,18,24,14.60
2020,04,23,18,25,14.60
2020,04,23,18,26,14.60
2020,04,23,18,27,14.60
2020,04,23,18,28,14.60
2020,04,23,18,29,14.60
2020,04,23,18,30,14.60
2020,04,23,18,31,14.60
2020,04,23,18,32,14.60
2020,04,23,18,33,14.60
2020,04,23,18,34,14.60
2020,04,23,18,35,14.60
2020,04,23,18,36,14.60
2020,04,23,18,37,14.60
2020,04,23,18,38,14.60
2020,04,23,18,39,14.60
2020,04,23,18,40,14.60
2020,04,23,18,41,14.60
2020,04,23,18,42,14.60
2020,04,23,18,43,14.60
2020,04,23,18,44,14.60
2020,04,23,18,45,14.60
2020,04,23,18,46,14.60
2020,04,23,18,47,14.60
2020,04,23,18,48,14.50
2020,04,23,18,49,14.30
2020,04,23,18,50,14.30
2020,04,23,18,51,14.20
2020,04,23,18,52,14.20
2020,04,23,18,53,14.20
2020,04,23,18,54,14.20
2020,04,23,18,55,14.10
2020,04,23,18,56,14.10
2020,04,23,18,57,14.10
2020,04,23,18,58,14.10
2020,04,23,18,59,14.10
2020,04,23,19,00,14.00
2020,04,23,19,01,13.90
2020,04,23,19,02,13.90
2020,04,23,19,03,13.90
2020,04,23,19,04,13.80
2020,04,23,19,05,13.80
2020,04,23,19,06,13.80
2020,04,23,19,07,13.80
2020,04,23,19,08,13.70
2020,04,23,19,09,13.70
2020,04,23,19,10,13.70
2020,04,23,19,11,13.70
2020,04,23,19,12,13.70
2020,04,23,19,13,13.70
2020,04,23,19,14,13.70
2020,04,23,19,15,13.70
2020,04,23,19,16,13.70
2020,04,23,19,17,13.70
2020,04,23,19,18,13.70
2020,04,23,19,19,13.70
2020,04,23,19,20,13.70
2020,04,23,19,21,13.70
2020,04,23,19,22,13.70
2020,04,23,19,23,13.60
2020,04,23,19,24,13.60
2020,04,23,19,25,13.60
2020,04,23,19,26,13.50
2020,04,23,19,27,13.50
2020,04,23,19,28,13.50
2020,04,23,19,29,13.40
2020,04,23,19,30,13.40
2020,04,23,19,31,13.40
2020,04,23,19,32,13.40
2020,04,23,19,33,13.40
2020,04,23,19,34,13.40
2020,04,23,19,35,13.40
2020,04,23,19,36,13.40
2020,04,23,19,37,13.40
2020,04,23,19,38,13.40
2020,04,23,19,39,13.40
2020,04,23,19,40,13.40
2020,04,23,19,41,13.40
2020,04,23,19,42,13.40
2020,04,23,19,43,13.40
2020,04,23,19,44,13.30
2020,04,23,19,45,13.30
2020,04,23,19,46,13.30
2020,04,23,19,47,13.30
2020,04,23,19,48,13.30
2020,04,23,19,49,13.30
2020,04,23,19,50,13.20
2020,04,23,19,51,13.20
2020,04,23,19,52,13.20
2020,04,23,19,53,13.20
2020,04,23,19,54,13.20
2020,04,23,19,55,13.10
2020,04,23,19,56,13.10
2020,04,23,19,57,13.10
2020,04,23,19,58,13.10
2020,04,23,19,59,13.10
2020,04,23,20,00,13.10
2020,04,23,20,01,13.00
2020,04,23,20,02,13.00
2020,04,23,20,03,13.00
2020,04,23,20,04,13.00
2020,04,23,20,05,12.90
2020,04,23,20,06,12.90
2020,04,23,20,07,12.90
2020,04,23,20,08,12.90
2020,04,23,20,09,12.90
2020,04,23,20,10,12.90
2020,04,23,20,11,12.90
2020,04,23,20,12,12.80
2020,04,23,20,13,12.80
2020,04,23,20,14,12.80
2020,04,23,20,15,12.80
2020,04,23,20,16,12.80
2020,04,23,20,17,12.80
2020,04,23,20,18,12.70
2020,04,23,20,19,12.70
2020,04,23,20,20,12.70
2020,04,23,20,21,12.70
2020,04,23,20,22,12.70
2020,04,23,20,23,12.70
2020,04,23,20,24,12.70
2020,04,23,20,25,12.70
2020,04,23,20,26,12.70
2020,04,23,20,27,12.70
2020,04,23,20,28,12.60
2020,04,23,20,29,12.60
2020,04,23,20,30,12.60
2020,04,23,20,31,12.60
2020,04,23,20,32,12.60
2020,04,23,20,33,12.60
2020,04,23,20,34,12.60
2020,04,23,20,35,12.60
2020,04,23,20,36,12.60
2020,04,23,20,37,12.60
2020,04,23,20,38,12.60
2020,04,23,20,39,12.60
2020,04,23,20,40,12.60
2020,04,23,20,41,12.60
2020,04,23,20,42,12.60
2020,04,23,20,43,12.50
2020,04,23,20,44,12.40
2020,04,23,20,45,12.40
2020,04,23,20,46,12.40
2020,04,23,20,47,12.40
2020,04,23,20,48,12.40
2020,04,23,20,49,12.40
2020,04,23,20,50,12.30
2020,04,23,20,51,12.30
2020,04,23,20,52,12.30
2020,04,23,20,53,12.30
2020,04,23,20,54,12.30
2020,04,23,20,55,12.30
2020,04,23,20,56,12.30
2020,04,23,20,57,12.30
2020,04,23,20,58,12.30
2020,04,23,20,59,12.30
2020,04,23,21,00,12.30
2020,04,23,21,01,12.30
2020,04,23,21,02,12.30
2020,04,23,21,03,12.30
2020,04,23,21,04,12.30
2020,04,23,21,05,12.30
2020,04,23,21,06,12.30
2020,04,23,21,07,12.10
2020,04,23,21,08,12.10
2020,04,23,21,09,12.10
2020,04,23,21,10,12.10
2020,04,23,21,11,12.10
2020,04,23,21,12,12.10
2020,04,23,21,13,12.10
2020,04,23,21,14,12.10
2020,04,23,21,15,12.10
2020,04,23,21,16,12.10
2020,04,23,21,17,12.00
2020,04,23,21,18,11.90
2020,04,23,21,19,11.80
2020,04,23,21,20,11.80
2020,04,23,21,21,11.80
2020,04,23,21,22,11.80
2020,04,23,21,23,11.70
2020,04,23,21,24,11.70
2020,04,23,21,25,11.70
2020,04,23,21,26,11.70
2020,04,23,21,27,11.70
2020,04,23,21,28,11.70
2020,04,23,21,29,11.70
2020,04,23,21,30,11.70
2020,04,23,21,31,11.70
2020,04,23,21,32,11.70
2020,04,23,21,33,11.70
2020,04,23,21,34,11.60
2020,04,23,21,35,11.60
2020,04,23,21,36,11.60
2020,04,23,21,37,11.60
2020,04,23,21,38,11.60
2020,04,23,21,39,11.50
2020,04,23,21,40,11.60
2020,04,23,21,41,11.50
2020,04,23,21,42,11.50
2020,04,23,21,43,11.50
2020,04,23,21,44,11.50
2020,04,23,21,45,11.50
2020,04,23,21,46,11.40
2020,04,23,21,47,11.40
2020,04,23,21,48,11.40
2020,04,23,21,49,11.40
2020,04,23,21,50,11.40
2020,04,23,21,51,11.40
2020,04,23,21,52,11.40
2020,04,23,21,53,11.40
2020,04,23,21,54,11.40
2020,04,23,21,55,11.40
2020,04,23,21,56,11.40
2020,04,23,21,57,11.30
2020,04,23,21,58,11.30
2020,04,23,21,59,11.30
2020,04,23,22,00,11.30
2020,04,23,22,01,11.30
2020,04,23,22,02,11.30
2020,04,23,22,03,11.30
2020,04,23,22,04,11.30
2020,04,23,22,05,11.30
2020,04,23,22,06,11.30
2020,04,23,22,07,11.30
2020,04,23,22,08,11.30
2020,04,23,22,09,11.30
2020,04,23,22,10,11.30
2020,04,23,22,11,11.30
2020,04,23,22,12,11.30
2020,04,23,22,13,11.30
2020,04,23,22,14,11.30
